sat.trackr.live / text

‹ back to catalog

KUIPER-00070

NORAD 64817 · 2025-151B

PAYLOAD ACTIVE UNKNOWN

§ Identity

Operator
Country
US
Launch date
2025-07-16
Launch site
AFETR
Launch vehicle
Mass (kg)
RCS (m²)

External: N2YO · Heavens-Above · Gunter

§ Orbital elements

Epoch: 2026-09-21T23:06:09.202464Z

Period
97.30 min
Inclination
51.9005°
Eccentricity
0.0001179
Mean motion
14.79937877 rev/d
Perigee alt
628.7 km
Apogee alt
630.3 km
Semi-major
7,007.7 km
B*
2.5400e-4
RAAN
157.6332°
Arg perigee
90.1929°
Mean anomaly
269.9168°
Rev number
6,548

§ Raw data

KUIPER-000701 64817U 25151B   26264.96260651  .00001716  00000+0  25400-3 0  99932 64817  51.9005 157.6332 0001179  90.1929 269.9168 14.79937877 65489

JSON: /api/v1/satellites/64817 · /tle

For live sub-satellite position, see the globe view (requires WebGL).

§ Visibility from observer

Set your observer location to see the next 7 days of passes ≥ 10°. The values pass through the URL so the page stays shareable.

No JS? Fill the form by hand. The geolocation button needs JavaScript.